N8JLK-WX Weather Reports


Display with metric or nautical units.
time (UTC)temp
F
wind
direction
speed
MPH
gust
MPH
rain 1hr
in
rain 24hr
in
rain mn
in
humidity
%
barometer
mb
20260502201533 47 71 2.0 3.0 0.00 0.00 0.00 46 1018.2
20260502200528 47 83 2.0 4.0 0.00 0.00 0.00 45 1018.2
20260502195523 47 78 2.0 4.0 0.00 0.00 0.00 45 1018.1
20260502194520 48 72 2.0 4.0 0.00 0.00 0.00 45 1018.1
20260502193552 48 85 2.0 3.0 0.00 0.00 0.00 45 1018.2
20260502192527 48 73 2.0 3.0 0.00 0.00 0.00 47 1018.4
20260502191543 48 85 2.0 3.0 0.00 0.00 0.00 46 1018.4
20260502190517 50 67 2.0 4.0 0.00 0.00 0.00 48 1018.4
20260502185518 50 72 2.0 4.0 0.00 0.00 0.00 47 1018.4
20260502184526 51 96 2.0 3.0 0.00 0.00 0.00 50 1018.6
20260502183521 50 106 2.0 3.0 0.00 0.00 0.00 50 1018.5
20260502182517 50 99 3.0 4.0 0.00 0.00 0.00 51 1018.6
20260502181518 50 89 2.0 4.0 0.00 0.00 0.00 51 1018.7
20260502180613 49 121 2.0 3.0 0.00 0.00 0.00 52 1018.8
20260502163546 41 22 1.0 2.0 0.00 0.00 0.00 76 1019.1
20260502162520 40 117 1.0 3.0 0.00 0.00 0.00 78 1019.1
20260502161515 40 101 1.0 2.0 0.00 0.00 0.00 80 1019.1
20260502160529 39 90 0.0 3.0 0.00 0.00 0.00 81 1019.1
20260502151520 37 138 2.0 3.0 0.00 0.00 0.00 87 1018.9
20260502150521 36 134 1.0 2.0 0.00 0.00 0.00 89 1018.9
20260502130516 33 123 1.0 4.0 0.00 0.00 0.00 93 1018.2
20260502123528 33 0.0 1.0 0.00 0.00 0.00 93 1018.2
20260502122524 33 135 0.0 2.0 0.00 0.00 0.00 93 1018.0
20260502121539 33 158 1.0 2.0 0.00 0.00 0.00 93 1017.8
20260502120526 32 141 2.0 2.0 0.00 0.00 0.00 93 1017.8
20260502115521 32 160 1.0 3.0 0.00 0.00 0.00 93 1017.7
20260502113519 32 137 2.0 3.0 0.00 0.00 0.00 93 1017.6
20260502112551 31 156 2.0 3.0 0.00 0.00 0.00 92 1017.6
20260502111526 31 144 2.0 3.0 0.00 0.00 0.00 91 1017.6
20260502110522 31 135 1.0 2.0 0.00 0.00 0.00 91 1017.6
20260502105517 31 113 0.0 2.0 0.00 0.00 0.00 90 1017.5
20260502104530 31 158 1.0 2.0 0.00 0.00 0.00 90 1017.4
20260502103525 31 135 0.0 2.0 0.00 0.00 0.00 90 1017.3
20260502102521 32 124 1.0 2.0 0.00 0.00 0.00 89 1017.2
20260502101515 32 144 1.0 2.0 0.00 0.00 0.00 89 1017.3
20260502100538 32 23 0.0 3.0 0.00 0.00 0.00 89 1017.3
20260502090531 34 0.0 0.0 0.00 0.00 0.00 89 1016.9
20260502071516 35 0.0 0.0 0.00 0.00 0.00 88 1017.0
20260502070530 35 0.0 0.0 0.00 0.00 0.00 88 1017.0
20260502065545 35 0.0 0.0 0.00 0.00 0.00 88 1017.0
20260502064522 35 0.0 0.0 0.00 0.00 0.00 88 1017.0
20260502063516 35 0.0 0.0 0.00 0.00 0.00 88 1017.1
20260502062529 34 0.0 1.0 0.00 0.00 0.00 88 1017.1
20260502061547 34 148 1.0 3.0 0.00 0.00 0.00 88 1017.3
20260502060521 35 135 0.0 1.0 0.00 0.00 0.00 87 1017.4
20260502055516 35 0.0 0.0 0.00 0.00 0.00 86 1017.5
20260502054530 35 0.0 0.0 0.00 0.00 0.00 86 1017.5
20260502053526 35 121 0.0 2.0 0.00 0.00 0.00 86 1017.6
20260502052521 35 146 1.0 2.0 0.00 0.00 0.00 86 1017.7
20260502051539 36 0.0 0.0 0.00 0.00 0.00 85 1017.8
20260502050531 36 0.0 0.0 0.00 0.00 0.00 85 1017.8
20260502045526 36 0.0 0.0 0.00 0.00 0.00 85 1017.9
20260502044521 36 0.0 0.0 0.00 0.00 0.00 85 1018.0
20260502043550 36 0.0 0.0 0.00 0.00 0.00 85 1017.9
20260502042531 36 0.0 0.0 0.00 0.00 0.00 85 1017.9
20260502041547 37 0.0 0.0 0.00 0.00 0.00 84 1017.8
20260502040516 37 0.0 0.0 0.00 0.00 0.00 84 1017.8
20260502035516 37 0.0 0.0 0.00 0.00 0.00 84 1017.8
20260502034519 37 0.0 0.0 0.00 0.00 0.00 84 1017.6
20260502033541 37 83 0.0 2.0 0.00 0.00 0.00 84 1017.5
20260502032550 37 0.0 0.0 0.00 0.00 0.00 84 1017.4
20260502031523 37 0.0 0.0 0.00 0.00 0.00 84 1017.3
20260502030519 37 63 2.0 3.0 0.00 0.00 0.00 84 1017.3
20260502025519 37 0.0 0.0 0.00 0.00 0.00 84 1017.3
20260502024532 37 0.0 0.0 0.00 0.00 0.00 84 1017.3
20260502023529 37 0.0 0.0 0.00 0.00 0.00 83 1017.3
20260502022523 37 0.0 0.0 0.00 0.00 0.00 83 1017.3
20260502021525 37 0.0 0.0 0.00 0.00 0.00 82 1017.3
20260502020526 36 0.0 0.0 0.00 0.00 0.00 82 1017.2
20260502015542 36 0.0 0.0 0.00 0.00 0.00 82 1017.1
20260502014516 36 0.0 0.0 0.00 0.00 0.00 81 1017.2
20260502013529 36 0.0 0.0 0.00 0.00 0.00 81 1017.0
20260502012520 36 0.0 0.0 0.00 0.00 0.00 79 1016.9
20260502011528 36 0.0 0.0 0.00 0.00 0.00 79 1016.7
20260502010522 37 0.0 0.0 0.00 0.00 0.00 78 1016.7
20260502005518 37 0.0 0.0 0.00 0.00 0.00 78 1016.6
20260502004520 38 0.0 0.0 0.00 0.00 0.00 77 1016.4
20260502003532 38 0.0 0.0 0.00 0.00 0.00 77 1016.2
20260502002528 39 0.0 0.0 0.00 0.00 0.00 76 1016.0
20260502001525 39 0.0 0.0 0.00 0.00 0.00 75 1015.9
20260502000520 40 0.0 0.0 0.00 0.00 0.00 75 1015.8
20260501235534 40 95 1.0 2.0 0.00 0.00 0.00 75 1015.8
20260501234528 41 79 0.0 2.0 0.00 0.00 0.00 75 1015.8
20260501233544 41 0.0 0.0 0.00 0.00 0.00 75 1015.8
20260501232539 41 75 1.0 2.0 0.00 0.00 0.00 75 1015.8
20260501231533 41 103 0.0 2.0 0.00 0.00 0.00 75 1015.7
20260501230529 41 68 1.0 2.0 0.00 0.00 0.00 74 1015.6
20260501225604 41 68 2.0 3.0 0.00 0.00 0.00 74 1015.5
20260501224519 42 68 2.0 3.0 0.00 0.00 0.00 74 1015.4
20260501223531 42 81 1.0 3.0 0.00 0.00 0.00 74 1015.3
20260501222527 43 74 2.0 3.0 0.00 0.00 0.00 75 1015.3
20260501221523 43 52 1.0 2.0 0.00 0.00 0.00 76 1015.4
20260501220517 43 114 1.0 3.0 0.00 0.00 0.00 77 1015.4
20260501215531 43 86 1.0 2.0 0.00 0.00 0.00 78 1015.3
20260501214526 43 85 1.0 2.0 0.00 0.00 0.00 79 1015.4
20260501213523 43 188 1.0 2.0 0.00 0.00 0.00 80 1015.3
20260501212518 43 90 0.0 2.0 0.00 0.00 0.00 81 1015.1
20260501211530 42 105 1.0 3.0 0.00 0.00 0.00 83 1015.0
20260501210525 42 52 1.0 4.0 0.00 0.00 0.00 84 1014.9
20260501205526 41 73 1.0 2.0 0.00 0.00 0.00 86 1014.7
20260501204524 40 147 1.0 3.0 0.00 0.00 0.00 87 1014.7
20260501203517 40 62 2.0 4.0 0.00 0.00 0.00 88 1014.8
20260501202530 39 67 2.0 3.0 0.00 0.00 0.00 88 1014.8